When you browse on this site, cookies collect data to enhance your experience and personalize the content and advertising you see.
Visit our Privacy Policy to learn more. By continuing to use the site, you agree to this use of cookies and data.
  • In Lithuania
  • List of Countries
  • For 7 days
  • Water Temperature
  • Weather Map
  • Weather Widgets
  • user-avatar
    Login

    Hourly Weather Deryazhkino

    Today, 19 August, Monday

    Time Temperature Precipitation Wind Pressure Humidity
    00:00 +15°C° 0 mm 2 mps 736 mmHg 99%
    01:00 +15°C° 0 mm 2 mps 737 mmHg 98%
    02:00 +15°C° 0 mm 2 mps 737 mmHg 98%
    03:00 +15°C° 0 mm 2 mps 737 mmHg 98%
    04:00 +14°C° 0 mm 2 mps 737 mmHg 98%
    05:00 +14°C° 0 mm 2 mps 738 mmHg 98%
    06:00 +15°C° 0 mm 2 mps 738 mmHg 97%
    07:00 +15°C° 0 mm 2 mps 738 mmHg 96%
    08:00 +15°C° 0 mm 2 mps 739 mmHg 94%
    09:00 +17°C° 0 mm 2 mps 739 mmHg 86%
    10:00 +19°C° 0 mm 2 mps 739 mmHg 77%
    11:00 +21°C° 0 mm 2 mps 740 mmHg 69%
    12:00 +23°C° 0 mm 2 mps 740 mmHg 65%
    13:00 +24°C° 0 mm 2 mps 740 mmHg 61%
    14:00 +25°C° 0 mm 3 mps 740 mmHg 57%
    15:00 +25°C° 0 mm 2 mps 740 mmHg 62%
    16:00 +24°C° 0 mm 2 mps 740 mmHg 66%
    17:00 +24°C° 0 mm 2 mps 740 mmHg 71%
    18:00 +23°C° 0 mm 2 mps 740 mmHg 78%
    19:00 +20°C° 0 mm 2 mps 740 mmHg 85%
    20:00 +18°C° 0 mm 2 mps 740 mmHg 92%
    21:00 +18°C° 0 mm 2 mps 740 mmHg 93%
    22:00 +18°C° 0 mm 2 mps 740 mmHg 95%
    23:00 +17°C° 0 mm 2 mps 740 mmHg 96%

    Tomorrow, 20 August, Tuesday

    Time Temperature Precipitation Wind Pressure Humidity
    00:00 +17°C° 0.2 mm 2 mps 741 mmHg 97%
    01:00 +17°C° 0.2 mm 2 mps 741 mmHg 97%
    02:00 +17°C° 0.2 mm 2 mps 741 mmHg 98%
    03:00 +17°C° 0.1 mm 2 mps 741 mmHg 98%
    04:00 +17°C° 0.1 mm 2 mps 741 mmHg 98%
    05:00 +17°C° 0.1 mm 2 mps 741 mmHg 98%
    06:00 +18°C° 0 mm 2 mps 742 mmHg 97%
    07:00 +19°C° 0 mm 2 mps 742 mmHg 95%
    08:00 +20°C° 0 mm 2 mps 742 mmHg 93%
    09:00 +21°C° 0 mm 2 mps 743 mmHg 88%
    10:00 +23°C° 0 mm 1 mps 743 mmHg 83%
    11:00 +24°C° 0 mm 1 mps 743 mmHg 78%
    12:00 +24°C° 0.6 mm 1 mps 743 mmHg 79%
    13:00 +24°C° 0.6 mm 2 mps 743 mmHg 81%
    14:00 +25°C° 0.6 mm 2 mps 743 mmHg 82%
    15:00 +24°C° 0.9 mm 2 mps 743 mmHg 86%
    16:00 +23°C° 0.9 mm 2 mps 743 mmHg 89%
    17:00 +23°C° 0.9 mm 1 mps 743 mmHg 92%
    18:00 +21°C° 0.2 mm 1 mps 744 mmHg 93%
    19:00 +20°C° 0.2 mm 1 mps 744 mmHg 94%
    20:00 +17°C° 0.2 mm 0 mps 744 mmHg 95%
    21:00 +17°C° 0.2 mm 0 mps 744 mmHg 95%
    22:00 +17°C° 0.2 mm 0 mps 744 mmHg 96%
    23:00 +16°C° 0.2 mm 0 mps 744 mmHg 96%

    Day after tomorrow, 21 August, Wednesday

    Time Temperature Precipitation Wind Pressure Humidity
    00:00 +16°C° 0.3 mm 0 mps 744 mmHg 97%
    01:00 +16°C° 0.3 mm 0 mps 745 mmHg 97%
    02:00 +16°C° 0.3 mm 0 mps 745 mmHg 97%
    03:00 +18°C° 0.1 mm 1 mps 745 mmHg 98%
    04:00 +16°C° 0.1 mm 1 mps 745 mmHg 98%
    05:00 +16°C° 0.1 mm 1 mps 745 mmHg 98%
    06:00 +18°C° 0 mm 1 mps 745 mmHg 97%
    07:00 +19°C° 0 mm 1 mps 745 mmHg 96%
    08:00 +20°C° 0 mm 1 mps 745 mmHg 95%
    09:00 +21°C° 0 mm 1 mps 745 mmHg 93%
    10:00 +22°C° 0 mm 1 mps 745 mmHg 90%
    11:00 +22°C° 0 mm 1 mps 745 mmHg 88%
    12:00 +23°C° 0 mm 1 mps 745 mmHg 85%
    13:00 +23°C° 0 mm 1 mps 745 mmHg 83%
    14:00 +24°C° 0 mm 1 mps 745 mmHg 80%
    15:00 +24°C° 0.3 mm 1 mps 744 mmHg 83%
    16:00 +24°C° 0.3 mm 1 mps 744 mmHg 85%
    17:00 +24°C° 0.3 mm 1 mps 744 mmHg 88%
    18:00 +23°C° 1.1 mm 1 mps 744 mmHg 91%
    19:00 +21°C° 1.1 mm 1 mps 744 mmHg 93%
    20:00 +20°C° 1.1 mm 1 mps 744 mmHg 96%
    21:00 +20°C° 0.9 mm 1 mps 744 mmHg 97%
    22:00 +20°C° 0.9 mm 1 mps 744 mmHg 97%
    23:00 +20°C° 0.9 mm 1 mps 744 mmHg 98%

    22 August, Thursday

    Time Temperature Precipitation Wind Pressure Humidity
    00:00 +19°C° 0.8 mm 1 mps 744 mmHg 98%
    01:00 +19°C° 0.8 mm 1 mps 744 mmHg 98%
    02:00 +19°C° 0.8 mm 1 mps 744 mmHg 98%
    03:00 +18°C° 1.3 mm 2 mps 744 mmHg 98%
    04:00 +17°C° 1.3 mm 2 mps 743 mmHg 98%
    05:00 +17°C° 1.3 mm 2 mps 743 mmHg 98%
    06:00 +17°C° 1.1 mm 3 mps 744 mmHg 97%
    07:00 +16°C° 1.1 mm 3 mps 744 mmHg 97%
    08:00 +16°C° 1.1 mm 3 mps 744 mmHg 96%
    09:00 +16°C° 0.4 mm 3 mps 744 mmHg 96%
    10:00 +14°C° 0.4 mm 3 mps 744 mmHg 96%
    11:00 +14°C° 0.4 mm 3 mps 744 mmHg 97%
    12:00 +15°C° 0.1 mm 2 mps 744 mmHg 96%
    13:00 +15°C° 0.1 mm 2 mps 744 mmHg 96%
    14:00 +16°C° 0.1 mm 2 mps 744 mmHg 95%
    15:00 +16°C° 0 mm 2 mps 744 mmHg 95%
    16:00 +16°C° 0 mm 2 mps 744 mmHg 95%
    17:00 +16°C° 0 mm 2 mps 744 mmHg 95%
    18:00 +16°C° 0.1 mm 2 mps 744 mmHg 96%
    19:00 +15°C° 0.1 mm 1 mps 744 mmHg 96%
    20:00 +15°C° 0.1 mm 1 mps 744 mmHg 97%
    21:00 +15°C° 0 mm 1 mps 744 mmHg 97%
    22:00 +15°C° 0 mm 1 mps 744 mmHg 97%
    23:00 +15°C° 0 mm 1 mps 744 mmHg 96%

    23 August, Friday

    Time Temperature Precipitation Wind Pressure Humidity
    00:00 +15°C° 0 mm 1 mps 744 mmHg 96%
    01:00 +14°C° 0 mm 1 mps 745 mmHg 96%
    02:00 +14°C° 0 mm 1 mps 745 mmHg 96%
    03:00 +14°C° 0 mm 1 mps 744 mmHg 96%
    04:00 +14°C° 0 mm 1 mps 744 mmHg 96%
    05:00 +14°C° 0 mm 1 mps 744 mmHg 96%
    06:00 +15°C° 0 mm 1 mps 744 mmHg 93%
    07:00 +16°C° 0 mm 1 mps 745 mmHg 91%
    08:00 +18°C° 0 mm 1 mps 745 mmHg 89%
    09:00 +19°C° 0.3 mm 1 mps 745 mmHg 83%
    10:00 +20°C° 0.3 mm 1 mps 745 mmHg 78%
    11:00 +21°C° 0.3 mm 1 mps 745 mmHg 72%
    12:00 +20°C° 0.5 mm 1 mps 745 mmHg 77%
    13:00 +18°C° 0.5 mm 2 mps 745 mmHg 81%
    14:00 +18°C° 0.5 mm 2 mps 744 mmHg 85%
    15:00 +17°C° 0.3 mm 2 mps 744 mmHg 87%
    16:00 +18°C° 0.3 mm 1 mps 745 mmHg 89%
    17:00 +18°C° 0.3 mm 1 mps 745 mmHg 91%
    18:00 +15°C° 0.1 mm 1 mps 745 mmHg 92%
    19:00 +14°C° 0.1 mm 1 mps 745 mmHg 92%
    20:00 +13°C° 0.1 mm 1 mps 745 mmHg 93%
    21:00 +12°C° 0 mm 1 mps 745 mmHg 94%
    22:00 +12°C° 0 mm 2 mps 746 mmHg 95%
    23:00 +10°C° 0 mm 2 mps 746 mmHg 95%

    24 August, Saturday

    Time Temperature Precipitation Wind Pressure Humidity
    00:00 +10°C° 0 mm 2 mps 746 mmHg 96%
    01:00 +10°C° 0 mm 2 mps 746 mmHg 96%
    02:00 +9°C° 0 mm 2 mps 746 mmHg 96%
    03:00 +9°C° 0 mm 2 mps 746 mmHg 96%
    04:00 +9°C° 0 mm 2 mps 747 mmHg 97%
    05:00 +9°C° 0 mm 2 mps 747 mmHg 97%
    06:00 +12°C° 0 mm 2 mps 747 mmHg 93%
    07:00 +12°C° 0 mm 3 mps 747 mmHg 90%
    08:00 +13°C° 0 mm 3 mps 748 mmHg 86%
    09:00 +16°C° 0 mm 3 mps 748 mmHg 76%
    10:00 +18°C° 0 mm 3 mps 748 mmHg 66%
    11:00 +19°C° 0 mm 3 mps 748 mmHg 57%
    12:00 +20°C° 0 mm 3 mps 748 mmHg 55%
    13:00 +20°C° 0 mm 3 mps 748 mmHg 54%
    14:00 +21°C° 0 mm 3 mps 748 mmHg 52%
    15:00 +20°C° 0 mm 2 mps 748 mmHg 58%
    16:00 +20°C° 0 mm 2 mps 748 mmHg 63%
    17:00 +21°C° 0 mm 1 mps 748 mmHg 69%
    18:00 +19°C° 0 mm 1 mps 748 mmHg 74%
    19:00 +16°C° 0 mm 1 mps 748 mmHg 80%
    20:00 +13°C° 0 mm 1 mps 748 mmHg 86%
    21:00 +13°C° 0 mm 1 mps 748 mmHg 88%
    22:00 +12°C° 0 mm 1 mps 748 mmHg 90%
    23:00 +11°C° 0 mm 0 mps 749 mmHg 92%
    Show more